Location: *
(46.1200°N, 11.2700°E)
Time: 05:36:17
(UTC+00:00)

Cosmos 1689 Rocket - Pass Details

Date: 02 March 2021
Orbit: 350 x 361 km, 97.5° (Epoch: 13 April)

Event Time Altitude Azimuth Distance (km) Brightness Sun altitude
Rises 18:27:20 0° 6° (N) 2,207 5.9 -15.4°
Reaches altitude 10° 18:29:19 10° 359° (N) 1,358 4.9 -15.8°
Maximum altitude 18:32:04 42° 287° (WNW) 535 3.3 -16.2°
Drops below altitude 10° 18:34:49 10° 214° (SW) 1,353 5.2 -16.7°
Sets 18:36:48 0° 207° (SSW) 2,198 6.2 -17.0°
